Wind_Speed
75 69 64 60 56 54 53 46 44 39 37 35 33 31 30 28 27 25 23 21 20 19 18 17 16 15 14 14 12 12 12 11 12 13 14 17 20 22 24 25 26 27 29 31 31 32 34
76 73 68 64 59 55 55 49 46 43 40 37 35 33 31 29 28 26 24 23 21 19 18 17 17 16 15 13 13 13 13 15 16 19 19 21 22 23 25 26 27 29 31 34 34 35 37
78 77 70 67 62 57 55 54 47 45 42 40 37 35 33 31 29 28 26 24 23 22 20 19 17 15 15 15 15 16 19 20 19 22 23 23 24 23 23 26 27 29 32 33 34 35 34
79 79 73 69 64 60 56 55 51 46 44 42 40 37 34 32 30 29 27 26 24 23 21 19 18 18 19 19 20 20 24 23 21 23 24 25 25 24 25 26 27 28 29 30 30 33 31
82 82 77 71 66 62 57 54 53 47 45 43 40 39 36 33 31 30 28 26 25 22 20 20 21 22 23 23 22 22 26 27 27 23 25 25 25 24 26 27 27 27 25 27 29 32 27
86 83 82 73 69 64 59 54 53 50 45 44 41 39 38 36 33 30 28 27 24 22 22 23 24 25 25 25 25 25 26 26 28 27 26 26 25 26 27 27 27 26 26 25 28 30 27
87 83 83 78 71 66 62 56 52 51 47 44 41 39 38 36 34 33 31 28 26 26 26 26 26 27 27 27 27 26 28 26 26 26 25 26 27 27 27 27 26 24 24 25 28 25 21
89 83 86 83 73 69 64 59 53 50 49 45 42 39 38 37 35 34 31 29 28 28 28 28 29 28 28 28 26 24 25 25 25 25 25 25 26 26 27 27 25 24 26 23 24 19 15
88 84 85 79 77 71 66 60 56 53 50 47 45 41 40 38 36 34 32 30 30 29 28 29 28 27 27 26 24 24 23 23 24 24 25 26 25 24 26 28 27 23 22 19 21 14 14
83 86 85 81 81 74 68 64 58 55 51 49 47 43 42 40 38 35 34 32 30 29 29 28 28 25 25 24 23 22 22 23 25 25 25 24 24 27 28 27 26 23 20 18 15 18 19
89 90 87 83 80 75 69 65 62 58 52 50 49 46 43 41 39 37 35 33 31 29 29 26 24 23 22 21 20 21 20 22 24 24 24 25 25 27 28 27 24 23 18 17 18 19 22
86 90 87 76 80 78 74 66 64 61 55 51 50 47 42 41 39 37 35 34 29 28 27 22 18 18 18 16 18 19 20 23 25 25 27 27 27 27 27 26 21 21 20 19 21 24 25
86 86 86 78 74 79 70 67 65 60 58 51 51 46 43 41 40 38 36 33 29 28 25 24 21 18 18 18 19 20 22 23 25 26 27 27 26 26 26 25 22 20 21 23 25 27 28
76 78 87 74 69 71 76 72 67 64 66 56 52 47 44 43 40 38 37 35 33 30 24 23 21 19 19 20 20 21 23 27 27 26 24 24 26 25 25 25 24 23 24 26 29 32 34
86 85 77 73 67 68 75 70 72 68 66 58 53 51 49 46 45 41 36 36 35 28 26 26 24 24 24 24 23 24 25 25 26 25 25 25 25 24 24 23 25 26 26 29 32 35 38
87 86 80 71 68 64 68 70 74 66 61 60 54 54 54 51 47 42 41 40 38 32 30 29 26 25 25 25 24 26 27 25 23 24 26 26 26 24 26 26 25 28 30 33 36 38 41
72 71 78 74 67 61 62 66 61 59 61 62 59 59 57 50 44 42 40 46 40 33 32 28 27 29 28 28 29 30 26 22 22 24 26 27 27 27 28 27 28 29 31 34 38 40 43
75 76 73 73 69 62 62 61 60 55 63 53 53 61 54 46 48 32 34 28 29 30 31 32 32 33 32 33 33 30 25 24 24 24 25 27 29 29 29 29 30 32 34 35 37 39 41
77 79 68 68 66 61 58 60 61 56 60 49 48 43 45 33 28 30 28 27 31 32 33 32 34 34 31 33 33 31 26 24 25 25 27 27 29 31 32 32 33 32 33 35 38 40 42
66 65 70 69 64 60 55 55 57 56 52 54 48 45 48 35 34 36 36 34 33 36 36 33 34 33 34 33 33 33 28 27 27 26 28 30 31 31 32 34 35 35 36 38 40 42 45
56 69 64 66 65 62 59 53 53 52 50 49 44 45 41 41 40 41 40 36 38 38 36 35 35 33 31 34 36 34 31 30 30 30 31 32 32 33 35 36 37 38 39 39 42 45 47
70 68 65 60 60 54 54 53 52 51 50 49 48 45 43 43 44 42 42 43 43 41 39 38 37 33 34 35 38 33 32 31 31 32 35 35 35 35 37 38 40 41 39 40 43 45 46
51 50 48 57 58 59 58 55 53 50 49 47 44 45 46 45 44 44 43 43 43 42 41 41 39 39 37 38 37 34 32 33 32 33 33 35 36 38 39 39 41 44 44 42 42 43 44
53 53 52 49 56 59 59 61 58 54 49 47 47 48 46 45 45 45 45 45 45 45 44 43 43 41 39 38 37 36 35 36 36 35 36 38 39 41 42 43 44 45 44 43 43 46 47
52 52 52 54 51 51 44 49 56 57 55 53 49 48 47 47 46 46 47 47 47 46 46 48 44 44 42 40 42 43 42 41 40 39 38 39 39 42 44 44 45 45 44 46 46 44 46
59 50 46 47 55 47 53 49 46 48 50 49 51 52 48 47 47 48 50 51 52 52 50 50 49 49 47 46 43 41 42 43 42 40 39 39 40 43 44 44 46 46 46 45 46 44 47
40 50 50 50 54 57 52 55 50 49 50 48 45 45 48 47 48 51 53 53 55 58 57 49 48 49 48 48 48 45 42 40 40 39 40 41 42 43 43 46 46 45 44 47 47 49 50
37 39 37 32 39 44 49 49 51 50 48 47 51 52 47 46 49 46 47 56 51 49 50 50 48 44 43 43 41 40 39 39 41 42 43 43 44 44 45 46 46 43 43 46 48 48 47
36 37 32 34 32 26 42 49 49 50 45 44 45 48 51 46 45 45 42 42 43 43 47 48 43 39 40 38 38 39 41 42 42 44 43 44 45 44 45 46 43 43 46 47 48 46 44
Wind_Direction
209 206 205 205 202 203 208 208 207 206 207 207 203 202 200 199 200 202 202 203 203 202 203 208 215 215 213 209 210 221 237 249 263 274 285 293 295 298 301 301 300 298 296 294 295 295 297
208 205 204 204 203 202 204 207 207 207 205 208 207 205 204 201 202 205 208 210 212 213 215 219 220 221 224 226 229 244 257 267 276 284 291 295 296 297 296 296 294 293 292 297 298 298 297
207 205 204 202 201 201 201 205 208 207 207 205 208 207 206 207 206 208 211 215 217 216 217 220 225 231 239 245 253 265 269 274 285 294 300 300 300 299 299 296 293 289 289 290 289 289 285
206 207 203 201 200 200 199 202 207 207 207 206 206 208 208 208 209 210 210 213 214 215 217 221 229 238 247 256 265 273 280 285 292 297 301 301 305 306 306 305 300 295 291 288 288 287 287
205 206 203 200 200 199 199 200 204 207 207 206 206 206 208 209 209 209 209 212 214 216 221 229 239 248 256 264 272 278 285 295 300 301 302 303 308 311 308 305 302 298 294 292 290 290 290
204 207 201 200 200 198 198 199 201 204 207 206 206 206 206 207 207 208 210 213 216 224 234 244 250 255 263 270 277 283 288 293 297 302 303 306 310 309 308 305 300 297 294 291 288 295 293
204 206 202 201 201 199 198 198 199 201 205 207 205 205 206 205 205 207 210 215 224 231 239 247 253 260 267 274 283 289 293 297 298 299 301 306 307 307 305 300 298 298 291 287 290 285 285
203 203 209 197 201 199 196 197 199 198 201 204 204 203 205 207 208 211 214 219 227 237 245 252 260 268 274 280 286 290 292 293 292 294 299 300 302 304 301 301 302 296 292 285 281 274 270
202 204 210 200 197 196 196 196 198 198 199 201 203 205 208 210 213 217 220 225 233 242 252 261 267 272 277 282 287 289 288 288 289 292 294 298 300 300 298 299 300 296 289 279 280 273 279
201 204 204 206 197 196 195 196 197 199 199 200 202 204 209 215 217 222 227 233 241 248 257 263 266 270 276 282 282 284 283 284 287 290 290 292 293 293 295 298 299 295 285 275 276 288 290
201 202 204 207 195 196 194 194 198 200 200 201 202 204 210 214 219 224 230 236 244 251 255 257 262 268 271 276 278 280 283 286 287 286 284 289 291 293 295 297 298 290 277 274 280 285 292
199 203 204 205 206 192 194 193 197 202 202 203 205 205 209 215 219 225 232 237 241 241 244 248 254 260 260 267 271 275 282 281 281 285 287 287 289 292 294 297 301 287 277 279 284 288 289
196 200 207 207 206 196 190 192 194 195 205 204 210 208 212 218 222 228 231 231 227 229 238 241 248 255 258 265 272 281 287 292 293 292 288 285 290 295 295 294 295 282 279 283 281 283 292
188 198 206 204 200 202 193 195 195 199 204 203 207 208 214 221 222 224 226 223 219 221 229 240 247 257 265 265 275 287 294 295 294 296 296 293 297 294 294 294 293 281 279 278 283 290 296
194 198 202 204 203 208 199 194 197 208 200 201 205 208 212 216 220 220 224 224 217 220 231 238 245 251 257 266 276 286 296 295 295 295 297 298 297 295 294 294 293 286 284 286 290 291 296
190 198 201 202 203 203 210 201 200 199 198 198 200 211 212 215 219 223 223 219 223 225 233 240 245 253 261 269 282 293 296 297 296 295 294 295 297 297 296 295 296 293 292 295 297 301 305
188 192 201 204 204 203 205 214 216 198 199 207 204 212 213 215 216 223 224 224 220 226 231 239 254 266 269 275 281 293 295 297 303 301 297 295 298 296 296 298 299 298 299 299 302 305 308
189 191 195 201 204 205 205 208 216 210 203 213 210 213 216 209 217 220 213 211 222 231 237 250 265 269 271 276 282 289 289 293 298 299 295 295 297 296 299 299 298 300 302 303 305 307 308
184 183 187 194 200 204 204 206 212 220 216 215 220 214 214 220 220 223 221 234 239 241 246 255 261 267 268 280 283 287 290 290 295 294 292 290 292 295 296 297 300 301 300 302 304 308 310
177 179 193 198 203 205 208 209 212 211 216 222 228 231 232 221 231 232 230 238 244 248 252 255 263 262 275 276 283 282 285 285 287 291 296 298 292 294 297 299 300 300 303 305 309 311 311
190 196 200 203 204 208 209 209 212 215 218 220 222 225 229 221 230 231 230 230 243 248 253 258 262 270 267 274 280 280 277 278 285 287 291 294 295 294 296 299 302 303 306 309 310 311 311
190 199 194 199 197 200 204 209 212 215 219 221 224 222 226 228 229 232 233 236 241 247 254 258 263 263 266 276 276 274 271 277 285 287 288 291 293 295 298 298 300 304 307 306 309 310 311
173 188 195 204 213 218 215 213 214 217 218 222 225 226 227 230 232 235 237 241 244 247 250 253 260 264 265 272 270 267 268 276 285 290 290 293 294 296 299 299 302 305 303 306 308 308 308
181 183 188 197 209 211 211 214 216 215 219 221 223 226 229 231 235 237 239 242 246 249 250 253 260 262 267 268 264 265 271 278 286 287 287 290 293 296 297 299 301 304 305 306 306 307 305
178 182 189 190 194 194 203 211 216 220 224 221 223 225 229 231 234 237 242 245 248 250 254 258 259 261 266 270 265 265 270 279 285 284 286 288 291 293 295 296 301 303 304 305 305 304 304
187 189 192 197 200 204 200 200 205 213 219 222 226 229 231 232 235 240 243 246 250 252 253 256 258 262 264 265 267 268 272 277 277 280 280 285 289 292 295 299 304 307 306 305 304 305 303
172 181 188 196 205 204 210 215 214 216 218 225 225 230 232 238 244 246 247 251 253 253 252 253 255 262 262 261 263 269 269 270 271 276 283 286 287 292 296 297 301 301 303 302 303 302 300
166 171 175 183 199 205 216 213 218 220 223 230 234 238 240 241 243 246 250 244 246 247 247 250 252 254 256 258 260 264 267 271 276 280 283 287 292 294 295 295 296 297 300 300 300 299 304
201 174 178 176 177 179 205 217 225 226 228 235 240 234 235 238 237 238 241 242 239 241 244 242 245 250 254 257 261 265 270 275 280 284 285 285 285 287 288 292 294 296 297 297 297 301 304
Height
5738 5751 5763 5774 5784 5793 5804 5812 5818 5824 5830 5836 5840 5845 5850 5855 5861 5866 5870 5874 5878 5881 5884 5886 5887 5889 5892 5893 5895 5896 5897 5898 5899 5899 5900 5900 5900 5898 5897 5895 5894 5891 5888 5884 5883 5881 5877
5728 5741 5754 5765 5776 5786 5795 5806 5813 5820 5825 5832 5837 5842 5847 5852 5857 5863 5868 5872 5875 5878 5881 5883 5885 5887 5889 5892 5893 5894 5895 5896 5896 5896 5898 5897 5896 5896 5894 5891 5889 5886 5881 5878 5877 5874 5869
5717 5731 5744 5756 5768 5779 5788 5798 5808 5815 5821 5826 5833 5839 5844 5849 5854 5859 5864 5868 5872 5876 5878 5880 5883 5885 5887 5890 5891 5891 5891 5892 5894 5893 5893 5893 5891 5891 5890 5886 5884 5880 5877 5875 5871 5868 5862
5707 5721 5735 5747 5759 5771 5781 5791 5802 5809 5816 5822 5828 5834 5839 5845 5851 5855 5860 5864 5868 5872 5875 5878 5881 5883 5883 5886 5887 5888 5886 5888 5890 5890 5889 5887 5885 5884 5882 5880 5877 5873 5871 5867 5865 5860 5858
5697 5712 5726 5739 5750 5762 5774 5784 5794 5803 5811 5817 5823 5830 5835 5841 5846 5851 5856 5861 5865 5869 5872 5875 5878 5879 5880 5881 5884 5884 5883 5883 5884 5886 5884 5882 5881 5879 5877 5874 5872 5868 5864 5861 5858 5854 5854
5685 5701 5717 5731 5743 5754 5766 5777 5787 5797 5806 5813 5819 5825 5831 5836 5842 5847 5852 5857 5862 5866 5869 5871 5873 5876 5877 5878 5880 5880 5880 5880 5878 5879 5878 5876 5875 5873 5870 5868 5866 5863 5859 5856 5850 5849 5849
5673 5690 5704 5722 5734 5746 5758 5770 5781 5790 5800 5808 5815 5821 5827 5832 5837 5843 5849 5854 5860 5863 5865 5867 5870 5871 5873 5873 5875 5876 5874 5874 5873 5873 5872 5871 5870 5867 5865 5863 5861 5857 5853 5851 5847 5846 5845
5663 5681 5693 5711 5727 5740 5751 5763 5774 5783 5793 5802 5809 5816 5822 5828 5833 5839 5845 5850 5854 5859 5861 5863 5865 5867 5868 5868 5870 5870 5869 5870 5869 5868 5867 5868 5865 5863 5860 5858 5856 5853 5849 5847 5845 5844 5844
5657 5673 5683 5700 5717 5733 5744 5756 5768 5777 5787 5796 5804 5811 5817 5823 5829 5835 5841 5846 5849 5853 5857 5859 5860 5862 5863 5864 5864 5864 5865 5863 5863 5864 5863 5862 5861 5859 5855 5852 5851 5848 5845 5843 5840 5842 5841
5646 5665 5678 5691 5708 5724 5737 5748 5761 5771 5781 5790 5798 5806 5812 5819 5826 5831 5836 5840 5844 5848 5851 5854 5856 5857 5858 5859 5860 5859 5859 5860 5859 5859 5859 5858 5857 5854 5851 5848 5846 5844 5842 5840 5838 5836 5836
5635 5655 5672 5686 5702 5716 5730 5742 5754 5765 5774 5783 5792 5800 5808 5814 5820 5826 5832 5835 5839 5843 5845 5849 5851 5852 5853 5855 5856 5855 5855 5854 5853 5853 5855 5854 5852 5849 5846 5845 5843 5840 5838 5836 5835 5833 5831
5631 5647 5664 5679 5696 5708 5723 5734 5748 5758 5767 5776 5786 5794 5801 5809 5815 5821 5826 5830 5835 5839 5840 5845 5846 5847 5849 5850 5851 5851 5851 5850 5849 5848 5847 5847 5846 5845 5842 5840 5838 5836 5834 5832 5831 5828 5827
5625 5642 5657 5674 5690 5703 5714 5728 5740 5750 5761 5771 5781 5788 5796 5803 5810 5815 5820 5825 5831 5833 5837 5840 5842 5843 5845 5846 5846 5846 5845 5845 5844 5844 5843 5842 5841 5839 5836 5834 5834 5832 5831 5828 5827 5824 5822
5618 5635 5650 5668 5685 5695 5707 5720 5733 5742 5753 5764 5774 5783 5790 5797 5804 5809 5815 5820 5824 5829 5832 5834 5837 5838 5840 5841 5841 5841 5840 5839 5839 5838 5837 5836 5836 5833 5831 5830 5829 5828 5827 5824 5821 5818 5816
5613 5630 5646 5663 5677 5691 5703 5712 5725 5734 5745 5757 5767 5776 5784 5791 5797 5803 5809 5814 5818 5823 5826 5829 5831 5833 5834 5835 5836 5835 5835 5834 5833 5832 5832 5830 5829 5827 5826 5825 5824 5822 5821 5819 5816 5813 5810
5609 5626 5644 5659 5674 5688 5698 5709 5718 5726 5739 5748 5759 5769 5777 5783 5791 5797 5802 5806 5813 5817 5820 5822 5825 5827 5828 5829 5830 5829 5828 5827 5827 5826 5825 5824 5823 5822 5821 5820 5819 5817 5815 5812 5808 5805 5801
5607 5622 5638 5653 5667 5682 5693 5704 5711 5720 5733 5743 5753 5762 5771 5777 5785 5792 5797 5802 5807 5810 5813 5816 5818 5820 5821 5822 5822 5823 5823 5822 5821 5820 5819 5817 5818 5819 5817 5816 5814 5813 5810 5806 5802 5799 5793
5602 5617 5635 5649 5663 5677 5690 5700 5711 5719 5728 5737 5745 5755 5763 5771 5780 5785 5792 5796 5799 5802 5806 5808 5811 5812 5814 5815 5815 5816 5817 5816 5816 5814 5814 5813 5812 5812 5812 5811 5809 5807 5804 5800 5797 5794 5788
5601 5612 5629 5645 5659 5673 5685 5698 5708 5717 5725 5732 5741 5750 5756 5764 5772 5780 5786 5789 5792 5796 5799 5802 5804 5806 5807 5808 5808 5808 5810 5810 5809 5808 5808 5808 5807 5806 5806 5806 5803 5800 5797 5794 5791 5787 5783
5596 5609 5625 5641 5656 5668 5680 5692 5702 5712 5721 5729 5736 5744 5751 5759 5766 5772 5779 5783 5786 5790 5792 5795 5797 5799 5800 5800 5801 5801 5804 5804 5803 5803 5802 5802 5801 5801 5800 5798 5795 5793 5790 5787 5783 5779 5774
5591 5609 5624 5637 5650 5663 5674 5686 5696 5705 5715 5724 5730 5739 5747 5754 5760 5766 5771 5777 5780 5783 5785 5788 5790 5793 5794 5794 5794 5795 5797 5797 5798 5797 5796 5796 5795 5795 5793 5791 5789 5787 5783 5778 5774 5769 5764
5597 5610 5623 5637 5649 5660 5672 5683 5690 5700 5709 5718 5727 5734 5742 5748 5753 5758 5764 5769 5773 5775 5778 5781 5783 5785 5786 5787 5788 5789 5790 5791 5790 5790 5789 5788 5787 5786 5785 5784 5782 5780 5775 5770 5766 5761 5755
5598 5611 5623 5634 5645 5656 5666 5676 5685 5693 5703 5713 5721 5728 5734 5740 5745 5751 5757 5761 5764 5767 5770 5773 5776 5778 5779 5780 5781 5781 5782 5783 5783 5783 5781 5781 5779 5778 5779 5776 5774 5772 5768 5763 5759 5753 5747
5598 5610 5621 5631 5639 5649 5658 5668 5679 5689 5697 5706 5714 5720 5726 5733 5738 5743 5747 5752 5755 5758 5762 5765 5767 5769 5771 5772 5773 5774 5775 5775 5775 5775 5773 5773 5771 5770 5769 5767 5766 5764 5760 5756 5751 5746 5740
5596 5605 5616 5626 5635 5644 5653 5662 5671 5680 5690 5698 5704 5712 5718 5723 5729 5734 5738 5742 5746 5749 5753 5755 5758 5760 5761 5764 5765 5766 5767 5767 5768 5767 5766 5765 5764 5762 5761 5759 5758 5755 5752 5748 5744 5739 5731
5593 5601 5610 5620 5629 5639 5648 5656 5664 5673 5682 5690 5696 5703 5709 5715 5720 5724 5729 5732 5735 5739 5742 5746 5748 5750 5752 5754 5756 5757 5758 5758 5759 5759 5759 5757 5755 5754 5752 5749 5746 5744 5741 5738 5735 5732 5723
5586 5594 5604 5614 5623 5632 5641 5649 5657 5666 5673 5681 5687 5693 5699 5705 5710 5714 5718 5721 5725 5728 5732 5736 5738 5739 5740 5742 5745 5747 5748 5749 5750 5750 5751 5748 5746 5744 5741 5739 5739 5734 5732 5729 5726 5723 5715
5583 5592 5600 5608 5618 5625 5634 5643 5651 5658 5665 5671 5678 5683 5690 5694 5699 5703 5706 5710 5713 5716 5720 5725 5727 5728 5731 5733 5736 5737 5738 5740 5741 5740 5738 5737 5735 5735 5732 5730 5730 5726 5722 5720 5715 5709 5706
5581 5587 5597 5606 5613 5620 5627 5637 5644 5651 5655 5662 5667 5673 5680 5685 5691 5694 5698 5700 5702 5706 5710 5712 5717 5720 5723 5725 5727 5727 5728 5728 5729 5730 5729 5728 5726 5726 5724 5723 5719 5716 5713 5708 5704 5701 5697